Milton, FL

5:53 PM CDT on September 25, 2017 (GMT -0500)
Whiting Field Naval Air Station (South)

Weather History for KNDZ - October, 2013

Change the Weather History Date:

Tuesday, October 22, 2013

  Actual Average (KNSE) Record (KNSE)
Temperature  
Mean Temperature 66 °F -  
Max Temperature 75 °F 76 °F 88 °F (2003)
Min Temperature 60 °F 56 °F 42 °F (2011)
Cooling Degree Days 2    
Growing Degree Days 16 (Base 50)    
Moisture  
Dew Point 61 °F    
Average Humidity 82    
Maximum Humidity 93    
Minimum Humidity 68    
Precipitation  
Precipitation 0.07 in - - ()
Sea Level Pressure  
Sea Level Pressure 29.90 in    
Wind  
Wind Speed 3 mph (WNW)    
Max Wind Speed 8 mph    
Max Gust Speed -    
Visibility 10 miles    
Events Rain    
Averages and records for this station are not official NWS values.
T = Trace of Precipitation, MM = Missing Value Source: NWS Daily Summary

Daily Weather History Graph

Daily Weather History Graph

Search for Another Location

Airport or City:

Trip Planner

Search our weather history database for the weather conditions in past years. The results will help you decide how hot, cold, wet, or windy it might be!

Date:

Astronomy

Oct. 22, 2013 Rise Set
Actual Time 6:55 AM CDT 6:08 PM CDT
Civil Twilight 6:30 AM CDT 6:33 PM CDT
Nautical Twilight 6:02 AM CDT 7:01 PM CDT
Astronomical Twilight 5:34 AM CDT 7:29 PM CDT
Moon 8:59 PM CDT (10/22) 10:13 AM CDT (10/22)
Length of Visible Light 12h 02m
Length of Day
11h 13m
Waning Gibbous, 86% of the Moon is Illuminated
Oct 22
Waning Gibbous
Oct 26
Last Quarter
Nov 3
New
Nov 9
First Quarter
Nov 17
Full

Hourly Weather History & Observations

Time (CDT) Temp. Dew Point Humidity Pressure Visibility Wind Dir Wind Speed Gust Speed Precip Events Conditions
12:56 AM 64.0 °F 61.0 °F 90% 29.95 in 9.0 mi SSE 4.6 mph - 0.01 in Rain Light Rain
1:56 AM 64.0 °F 62.1 °F 93% 29.94 in 10.0 mi Calm Calm - 0.01 in Rain Light Rain
2:56 AM 64.0 °F 62.1 °F 93% 29.94 in 10.0 mi SSE 5.8 mph - 0.01 in Rain Light Rain
3:56 AM 64.0 °F 62.1 °F 93% 29.94 in 9.0 mi Calm Calm - 0.02 in Rain Light Rain
4:56 AM 64.0 °F 61.0 °F 90% 29.94 in 10.0 mi SSE 4.6 mph - 0.02 in   Overcast
5:56 AM 64.0 °F 61.0 °F 90% 29.94 in 10.0 mi Calm Calm - N/A   Overcast
6:56 AM 64.0 °F 61.0 °F 90% 29.94 in 10.0 mi Calm Calm - N/A   Overcast
7:56 AM 64.9 °F 61.0 °F 87% 29.92 in 10.0 mi Calm Calm - N/A   Overcast
8:56 AM 66.9 °F 60.1 °F 79% 29.93 in 10.0 mi Calm Calm - N/A   Overcast
9:56 AM 68.0 °F 61.0 °F 78% 29.94 in 10.0 mi NNW 5.8 mph - N/A   Overcast
10:56 AM 70.0 °F 61.0 °F 73% 29.93 in 10.0 mi NW 4.6 mph - N/A   Mostly Cloudy
11:56 AM 71.1 °F 61.0 °F 70% 29.91 in 10.0 mi NW 4.6 mph - N/A   Mostly Cloudy
12:56 PM 71.1 °F 61.0 °F 70% 29.88 in 10.0 mi NW 5.8 mph - N/A   Mostly Cloudy
1:56 PM 72.0 °F 61.0 °F 68% 29.86 in 10.0 mi NNW 4.6 mph - N/A   Mostly Cloudy
2:56 PM 72.0 °F 63.0 °F 73% 29.86 in 10.0 mi Calm Calm - N/A   Mostly Cloudy
3:56 PM 73.9 °F 63.0 °F 68% 29.85 in 10.0 mi Calm Calm - N/A   Mostly Cloudy
4:56 PM 73.0 °F 63.0 °F 71% 29.85 in 10.0 mi SSE 5.8 mph - N/A   Mostly Cloudy
5:56 PM 70.0 °F 63.0 °F 78% 29.85 in 10.0 mi South 3.5 mph - N/A   Mostly Cloudy
6:56 PM 68.0 °F 64.0 °F 87% 29.86 in 10.0 mi Calm Calm - N/A   Scattered Clouds
7:56 PM 64.9 °F 62.1 °F 90% 29.87 in 10.0 mi Calm Calm - N/A   Scattered Clouds
8:56 PM 64.0 °F 62.1 °F 93% 29.88 in 8.0 mi Calm Calm - N/A   Scattered Clouds
9:56 PM 62.1 °F 57.9 °F 86% 29.90 in 10.0 mi NW 3.5 mph - N/A   Partly Cloudy
10:56 PM 60.1 °F 55.0 °F 83% 29.91 in 10.0 mi NW 5.8 mph - N/A   Partly Cloudy
11:56 PM 62.1 °F 55.0 °F 78% 29.91 in 10.0 mi NNW 8.1 mph - N/A   Scattered Clouds